This is the latest recevied weather packets stored in our database for station/object WW6Q. If no packets are shown the sender has not sent any weather packets the latest 10 day(s).
| Time | Temp. | Humidity | Pressure | Rain* | Wind** | Luminosity | Snow |
|---|---|---|---|---|---|---|---|
| 1788043272 | 25° C | 58% | 1019.3 hPa | 0 mm | - | 60 W/m² | - |
| 1788042967 | 25.56° C | 56% | 1019.2 hPa | 0 mm | - | 64 W/m² | - |
| 1788042663 | 25.56° C | 62% | 1019.3 hPa | 0 mm | - | 91 W/m² | - |
| 1788042361 | 26.11° C | 54% | 1019.2 hPa | 0 mm | - | 107 W/m² | - |
| 1788042056 | 26.11° C | 57% | 1019.3 hPa | 0 mm | - | 127 W/m² | - |
| 1788041752 | 26.11° C | 57% | 1019.3 hPa | 0 mm | - | 122 W/m² | - |
| 1788041447 | 26.11° C | 57% | 1019.1 hPa | 0 mm | - | 125 W/m² | - |
| 1788041146 | 26.11° C | 58% | 1019.2 hPa | 0 mm | - | 123 W/m² | - |
| 1788040841 | 26.11° C | 58% | 1019.2 hPa | 0 mm | - | 167 W/m² | - |
| 1788040539 | 25.56° C | 60% | 1019.2 hPa | 0 mm | - | 193 W/m² | - |
| 1788040236 | 25.56° C | 64% | 1019.2 hPa | 0 mm | - | 162 W/m² | - |
| 1788039934 | 25.56° C | 63% | 1019.1 hPa | 0 mm | - | 138 W/m² | - |
| 1788039629 | 25.56° C | 55% | 1019.2 hPa | 0 mm | - | 115 W/m² | - |
| 1788039325 | 25.56° C | 59% | 1019.3 hPa | 0 mm | - | 111 W/m² | - |
| 1788039020 | 25.56° C | 52% | 1019.1 hPa | 0 mm | - | 122 W/m² | - |
| 1788038720 | 26.11° C | 56% | 1019.1 hPa | 0 mm | - | 114 W/m² | - |
| 1788038415 | 26.11° C | 55% | 1019.1 hPa | 0 mm | - | 96 W/m² | - |
| 1788038110 | 26.11° C | 55% | 1019.2 hPa | 0 mm | - | 90 W/m² | - |
| 1788037810 | 26.11° C | 55% | 1019.2 hPa | 0 mm | - | 87 W/m² | - |
| 1788037510 | 26.11° C | 54% | 1019.2 hPa | 0 mm | - | 90 W/m² | - |
| 1788037205 | 26.11° C | 54% | 1019.2 hPa | 0 mm | - | 96 W/m² | - |
| 1788036904 | 26.11° C | 55% | 1019.3 hPa | 0 mm | - | 133 W/m² | - |
| 1788036601 | 26.11° C | 56% | 1019.2 hPa | 0 mm | - | 201 W/m² | - |
| 1788036296 | 26.11° C | 54% | 1019.3 hPa | 0 mm | - | 219 W/m² | - |
| 1788035991 | 26.11° C | 53% | 1019.5 hPa | 0 mm | - | 201 W/m² | - |
* Rain latest hour (hover to see other rain measurements)
** Current wind speed in m/s (hover to see current wind gust speed)